Location: Asheville, NC
(35.6000°N, 82.5500°W)
Time: 03:04:13
(UTC-04:00)

RS-15 - Pass Details

Date: 08 January 2018
Orbit: 1889 x 2156 km, 64.8° (Epoch: 21 April)

Event Time Altitude Azimuth Distance (km) Brightness Sun altitude
Rises 22:25:03 0° 315° (NW) 5,495 10.8 -58.3°
Reaches altitude 10° 22:30:00 10° 298° (WNW) 4,441 10.2 -59.2°
Maximum altitude 22:36:38 18° 262° (W) 3,764 9.7 -60.5°
Enters shadow 22:40:20 15° 239° (WSW) 3,937 9.7 -61.2°
